Location: Claremont
(33.9858°S, 18.4575°E)
Time: 03:49:48
(UTC+00:00)

Hubble Space Telescope - Visible Passes

Search period start: 07 December 2022 00:00
Search period end: 17 December 2022 00:00
Orbit: 530 x 534 km, 28.5° (Epoch: 06 December)

Date Brightness Start Highest point End Pass type
(mag) Time Alt. Az. Time Alt. Az. Time Alt. Az.
07 Dec 1.5 18:52:55 10° WNW 18:56:45 36° N 18:58:54 21° NE visible
08 Dec 1.6 18:40:16 10° WNW 18:44:03 35° N 18:46:50 16° NE visible
08 Dec 3.4 20:21:46 10° WNW 20:22:02 11° WNW 20:22:02 11° WNW visible
09 Dec 1.8 18:27:37 10° WNW 18:31:20 32° N 18:34:45 12° NE visible
09 Dec 3.3 20:09:24 10° WNW 20:09:57 12° NW 20:09:57 12° NW visible
10 Dec 1.9 18:14:59 10° WNW 18:18:38 30° N 18:22:15 10° NE visible
10 Dec 3.2 19:57:13 10° NW 19:57:50 11° NW 19:57:50 11° NW visible
11 Dec 3.3 19:45:33 10° NW 19:45:44 10° NNW 19:45:44 10° NNW visible
